Location: Domont
(49.0278°N, 2.3264°E)
Time: 08:58:55
(UTC+00:00)

DIWATA 2B (PO-101) - Pass Details

Date: 06 July 2022
Orbit: 583 x 599 km, 98.0° (Epoch: 14 August)

Event Time Altitude Azimuth Distance (km) Brightness Sun altitude
Exits shadow 02:21:49 16° 208° (SSW) 1,581 ? -11.2°
Maximum altitude 02:24:35 32° 264° (W) 1,042 ? -10.9°
Drops below altitude 10° 02:28:23 10° 328° (NNW) 1,950 ? -10.6°
Sets 02:30:46 0° 338° (NNW) 2,857 ? -10.4°
